Home   Weather   Nagano   Past weeks

Flag for Japan Past Weather in Nagano, Japan — Yesterday and Last 2 Weeks

Now
51 °F

Cool.


Feels Like: 51 °F
Forecast: 45 / 83 °F
Wind: 3 mph from Northwest

Location: Nagano

Current Time: May 29, 2017 at 3:26:32 am

Latest Report: May 29, 2017 at 2:00 am


Visibility: N/A

Pressure: 29.98 "Hg

Humidity: 87%

Dew Point: 47 °F

Location of NaganoLocation

Past Weather in Nagano — Graph

°F

Nagano Temperature Yesterday

Maximum temperature yesterday: 70 °F (at 2:00 pm)
Minimum temperature yesterday: 55 °F (at 11:00 pm)
Average temperature yesterday: 62 °F

High & Low Weather Summary for the Past Weeks

 TemperatureHumidityPressure
High87 °F (May 21, 1:00 pm)100% (May 25, 3:00 am)30.09 "Hg (May 25, 3:00 am)
Low50 °F (May 16, 5:00 am)24% (May 19, 1:00 pm)29.57 "Hg (May 26, 2:00 pm)
Average64 °F68%29.84 "Hg
* Reported May 14 2:00 am — May 29 2:00 am, Nagano. Weather by CustomWeather, © 2017

Note: Actual official high and low records may vary slightly from our data, if they occured in-between our weather recording intervals... More about our weather records

Advertising

Nagano Weather History for the Previous 24 Hours

Scroll right to see more
 ConditionsComfort  
Time TempWeatherWind HumidityBarometerVisibility
2:00 am
Mon, May 29
51 °FCool.3 mph87%29.98 "HgN/A
1:00 am54 °FCool.2 mph82%29.97 "HgN/A
12:00 am54 °FCool.6 mph84%29.97 "HgN/A
11:00 pm
Sun, May 28
55 °FCool.3 mph81%29.97 "HgN/A
10:00 pm56 °FCool.2 mph78%29.96 "HgN/A
9:00 pm58 °FPassing clouds.7 mph74%29.93 "Hg9 mi
8:00 pm60 °FCool.5 mph71%29.93 "HgN/A
7:00 pm61 °FCool.10 mph67%29.91 "HgN/A
6:00 pm65 °FMild.12 mph56%29.88 "HgN/A
5:00 pm67 °FMild.16 mph54%29.86 "HgN/A
4:00 pm70 °FMild.12 mph52%29.85 "HgN/A
3:00 pm70 °FPassing clouds.10 mph51%29.85 "Hg16 mi
2:00 pm70 °FMild.10 mph52%29.86 "HgN/A
1:00 pm70 °FMild.10 mph57%29.88 "HgN/A
12:00 pm68 °FMild.12 mph56%29.90 "HgN/A
11:00 am68 °FMild.10 mph57%29.89 "HgN/A
10:00 am64 °FMild.12 mph67%29.90 "HgN/A
9:00 am63 °FOvercast.10 mph71%29.91 "Hg9 mi
8:00 am61 °FCool.5 mph73%29.91 "HgN/A
7:00 am59 °FCool.3 mph78%29.91 "HgN/A
6:00 am57 °FCool.3 mph85%29.90 "HgN/A
5:00 am57 °FCool.3 mph85%29.89 "HgN/A
4:00 am57 °FCool.2 mph85%29.88 "HgN/A
3:00 am57 °FOvercast.3 mph85%29.87 "Hg19 mi
Weather by CustomWeather, © 2017

See weather overviewHow to use our weather pages